Showing default

TIANMU-1 14, 58648

Orbit data source: Space-Track

TIANMU-1 14, 58648 is a payload satellite owned by Hangtian Tianmu (CN) in SSO that was launched on Mon, 25 Dec 2023 UTC via a KUAIZHOU-1A launch vehicle from the Jiuquan Satellite Launch Center, China (JSC). Payload-class satellites include a variety of spacecraft equipped with specific instruments for various scientific and technological missions. These include communications satellites like Starlink; space stations such as the ISS; scientific satellites like the Hubble; Earth observation satellites from companies like Planet Labs, Umbra, and HawkEye 360; GPS; miniature CubeSats for education and research; and military/defense satellites.

Loading next visibility...
Identifier
58648, 2023-205D
Orbit
SSO
Country
Flag of CNCN / PRC
Related business
Manufacturer
Hangtian Tianmu
Mission
Operational Commercial Weather
Bus & Motor
TIANMU, Unknown motor
Mass
50 kg wet, ~50 kg dry
Launch date (UTC)
2023-12-25 (2 years ago)
Launch vehicle
KUAIZHOU-1A
Launch site
Jiuquan Satellite Launch Center, China (JSC)
Object type
Payload
Rocket body
Debris
Shape & HBR
Box, 0.8 m
Radar Cross Section
2.000 m², Large (>1 m²)

Expand to show TLE details & history
Last TLE update: 22 hours ago

TLE from 22 hours ago
0 TIANMU-1 14
1 58648U 23205D   26172.49764391  .00004278  00000-0  16465-3 0  9990
2 58648  97.3401 193.1933 0006382 328.1981  31.8872 15.26895930138163
Epoch: 2026-06-21T11:56Z
TLE epoch observation values (Epoch: 2026-06-21T11:56:36.433Z)
Latitude
-0.00003°
Longitude
104.34444°
Altitude
484.481 km
Speed
7.625 km/s
True Right ascension
12h 52m 46s
True Declination
0° 00' 00"
Sunlit
Object was in daylight at epoch
Visualization orbit readout
Latitude
Unknown
Longitude
Unknown
Altitude
Unknown
Speed
Unknown
Apparent Right ascension
Unknown
Apparent Declination
Unknown
Sunlit
N/A
Visualization observer readout
Local Sidereal Time
21:28:13
Azimuth
Unknown
Elevation
Unknown
Doppler factor
Unknown
Orbital elements
Apogee altitude
486.43 km
Perigee altitude
477.674 km
Semi-major axis
6,860.189 km
Eccentricity
0.00064
Inclination
97.3401°
RAAN
193.1933°
Arg. of periapsis
328.1981°
True anomaly
31.92586°
Mean anomaly
31.8872°
Eccentric anomaly
31.90653°
Mean motion
3.81979 °/min
Orbital period
94.25 mins
BSTAR
0.00016465
Loading maneuver chart data...
Computing Atmospheric mass density...
Loading historical data...
Loading historical data...
Loading historical data...
Loading historical data...
Loading historical data...
Loading historical data...
Loading historical data...
Other satellites on launch #205 in the year 2023 (2023-12-25 UTC)

Documentation

Showing up to 5 results
|